Location: Audinghen
(50.8518°N, 1.6129°E)
Time: 07:43:21
(UTC+00:00)

Cosmos 1726 - Pass Details

Date: 07 August 2020
Orbit: 482 x 498 km, 82.5° (Epoch: 26 September)

Event Time Altitude Azimuth Distance (km) Brightness Sun altitude
Exits shadow 03:37:54 - 202° (SSW) 1,945 4.6 -7.6°
Reaches altitude 10° 03:38:32 10° 204° (SSW) 1,684 4.3 -7.6°
Maximum altitude 03:42:09 55° 283° (WNW) 596 2.3 -7.1°
Drops below altitude 10° 03:45:48 10° 3° (N) 1,690 5.4 -6.6°
Sets 03:47:57 0° 7° (N) 2,574 6.5 -6.4°
